Content
SEND FEEDBACK

Daily
Averages
Monthly
Summary
United States of America

SUNDANCE, WYOMING


Home > North America > United States > Wyoming
Elevation: 4908 feet     Latitude: 44 24N     Longitude: 104 21W

WEATHER
 
SELECT A DAY
Number of Records: 227,285;   Date Range: 1/2/95 - 7/26/14
 
SHARE

PRINT THIS DATA

[ ← Previous Day ]
WEATHER ALMANAC - MARCH 29, 2013
[ Next Day → ]
[ °C ]   °F
Weather ElementAverageHighLow
Temperature51.5 °F64.4 °F (2:15 pm)39.2 °F (2:35 am)
Dewpoint26.7 °F32 °F (11:35 am)17.6 °F (10:55 am)
Humidity40.6 %61 % (2:35 am)18 % (10:55 am)
Barometer30.03 in30.08 in (12:35 am)29.98 in (3:15 pm)
Wind Speed7 mph20.7 mph (5:15 pm)
Wind Gust28.8 mph (2:35 pm)
Weather ElementAverage
Visibility10 mi
Wind DirectionSSW (186.5 °)

Weather ElementTotal
Precipitation---
Heating Degree Days13.2 (Base 65)
Growing Degree Days1.8 (Base 50)
Averaged from 68 records on March 29, 2013
WEATHER CONDITIONS BREAKOUT
WIND DIRECTION BREAKOUT
WEATHER BY HOUR - MARCH 29, 2013
[ °C ]   °F
Local TimeTemperatureDewpointHumidityBarometerVisibilityWind DirectionWind SpeedGust SpeedPrecipitationEventsConditions
12:35 AM41.0 °F26.6 °F57 %30.08 in10.0 miCalmClear
12:55 AM42.8 °F26.6 °F53 %30.08 in10.0 miCalmClear
1:35 AM41.0 °F26.6 °F57 %30.07 in10.0 miCalmClear
1:55 AM41.0 °F26.6 °F57 %30.07 in10.0 miCalmClear
2:15 AM41.0 °F26.6 °F57 %30.07 in10.0 miWest (270°)3.5 mphClear
2:35 AM39.2 °F26.6 °F61 %30.07 in10.0 miCalmClear
3:15 AM39.2 °F26.6 °F61 %30.06 in10.0 miSW (220°)5.8 mphClear
3:35 AM39.2 °F24.8 °F56 %30.06 in10.0 miSSW (210°)3.5 mphClear
3:55 AM41.0 °F24.8 °F53 %30.05 in10.0 miCalmClear
4:15 AM41.0 °F24.8 °F53 %30.04 in10.0 miCalmClear
4:35 AM39.2 °F24.8 °F56 %30.04 in10.0 miSW (220°)4.6 mphClear
4:55 AM41.0 °F24.8 °F53 %30.04 in10.0 miCalmClear
5:15 AM41.0 °F24.8 °F53 %30.03 in10.0 miCalmClear
5:35 AM41.0 °F24.8 °F53 %30.03 in10.0 miCalmClear
5:55 AM42.8 °F24.8 °F49 %30.03 in10.0 miCalmClear
6:15 AM44.6 °F24.8 °F46 %30.03 in10.0 miWSW (240°)3.5 mphClear
6:35 AM44.6 °F24.8 °F46 %30.03 in10.0 miCalmClear
6:55 AM44.6 °F24.8 °F46 %30.03 in10.0 miNE (40°)3.5 mphPartly Cloudy
7:15 AM44.6 °F24.8 °F46 %30.03 in10.0 miCalmPartly Cloudy
7:35 AM42.8 °F24.8 °F49 %30.03 in10.0 miENE (60°)3.5 mphPartly Cloudy
7:55 AM44.6 °F24.8 °F46 %30.04 in10.0 miCalmPartly Cloudy
8:15 AM46.4 °F24.8 °F43 %30.04 in10.0 miCalmClear
8:35 AM46.4 °F26.6 °F46 %30.04 in10.0 miNorth (360°)3.5 mphClear
8:55 AM46.4 °F30.2 °F53 %30.03 in10.0 miCalmClear
9:15 AM48.2 °F30.2 °F50 %30.03 in10.0 miCalmClear
9:35 AM53.6 °F26.6 °F35 %30.03 in10.0 miCalmClear
9:55 AM55.4 °F26.6 °F33 %30.02 in10.0 miNorth (10°)3.5 mphClear
10:15 AM59.0 °F24.8 °F27 %30.02 in10.0 miWSW (250°)8.1 mphClear
10:35 AM62.6 °F19.4 °F19 %30.01 in10.0 miWest (270°)6.9 mphClear
10:55 AM62.6 °F17.6 °F18 %30.01 in10.0 miNW (310°)5.8 mphPartly Cloudy
11:35 AM59.0 °F32.0 °F36 %30.01 in10.0 miNE (50°)6.9 mphPartly Cloudy
11:55 AM59.0 °F32.0 °F36 %30.02 in10.0 miNE (50°)8.1 mphPartly Cloudy
12:15 PM59.0 °F30.2 °F34 %30.02 in10.0 miNE (50°)8.1 mphClear
12:35 PM59.0 °F30.2 °F34 %30.02 in10.0 miNE (40°)8.1 mphClear
12:55 PM59.0 °F26.6 °F29 %30.02 in10.0 miNNW (340°)8.1 mphPartly Cloudy
1:15 PM59.0 °F26.6 °F29 %30.02 in10.0 miNorth (360°)9.2 mph18.4 mphPartly Cloudy
1:35 PM60.8 °F26.6 °F27 %30.01 in10.0 miNE (40°)5.8 mphClear
1:55 PM62.6 °F24.8 °F24 %30.01 in10.0 miWest (280°)8.1 mphClear
2:15 PM64.4 °F24.8 °F22 %30.00 in10.0 miWNW (300°)13.8 mph20.7 mphClear
2:35 PM60.8 °F24.8 °F25 %30.00 in10.0 miWest (280°)17.3 mph28.8 mphClear
2:55 PM62.6 °F24.8 °F24 %30.00 in10.0 miWest (280°)6.9 mphClear
3:15 PM62.6 °F24.8 °F24 %29.98 in10.0 miSW (230°)6.9 mphClear
3:35 PM62.6 °F24.8 °F24 %29.98 in10.0 miWNW (290°)10.4 mph18.4 mphClear
3:55 PM64.4 °F24.8 °F22 %29.98 in10.0 miNW (320°)13.8 mph21.9 mphClear
4:15 PM62.6 °F24.8 °F24 %29.98 in10.0 miWNW (300°)12.7 mph19.6 mphClear
4:35 PM64.4 °F24.8 °F22 %29.98 in10.0 miNW (320°)19.6 mph24.2 mphPartly Cloudy
4:55 PM62.6 °F26.6 °F26 %29.98 in10.0 miNNW (340°)16.1 mph23.0 mphPartly Cloudy
5:15 PM62.6 °F28.4 °F27 %29.99 in10.0 miNNW (340°)20.7 mph24.2 mphPartly Cloudy
5:35 PM60.8 °F28.4 °F29 %29.99 in10.0 miNW (320°)16.1 mph23.0 mphPartly Cloudy
5:55 PM62.6 °F28.4 °F27 %29.99 in10.0 miNNW (340°)17.3 mph21.9 mphScattered Clouds
6:15 PM59.0 °F28.4 °F31 %30.00 in10.0 miNNW (340°)12.7 mph18.4 mphPartly Cloudy
6:35 PM59.0 °F28.4 °F31 %30.00 in10.0 miNNW (330°)16.1 mph23.0 mphScattered Clouds
6:55 PM57.2 °F28.4 °F33 %30.01 in10.0 miNNW (340°)16.1 mphScattered Clouds
7:15 PM57.2 °F28.4 °F33 %30.01 in10.0 miNNW (330°)16.1 mph23.0 mphMostly Cloudy
7:35 PM55.4 °F26.6 °F33 %30.02 in10.0 miNNW (330°)17.3 mph26.5 mphMostly Cloudy
7:55 PM55.4 °F28.4 °F36 %30.03 in10.0 miNNW (340°)17.3 mph28.8 mphOvercast
8:15 PM53.6 °F28.4 °F38 %30.04 in10.0 miNW (310°)9.2 mphOvercast
8:35 PM53.6 °F28.4 °F38 %30.04 in10.0 miNW (320°)15.0 mphOvercast
8:55 PM50.0 °F28.4 °F43 %30.05 in10.0 miNW (310°)9.2 mph17.3 mphScattered Clouds
9:15 PM48.2 °F28.4 °F46 %30.05 in10.0 miWest (280°)10.4 mphScattered Clouds
9:35 PM48.2 °F30.2 °F50 %30.05 in10.0 miWest (270°)5.8 mphMostly Cloudy
9:55 PM46.4 °F30.2 °F53 %30.05 in10.0 miWest (260°)5.8 mphScattered Clouds
10:15 PM44.6 °F28.4 °F53 %30.06 in10.0 miWest (260°)5.8 mphClear
10:35 PM46.4 °F28.4 °F50 %30.06 in10.0 miWest (270°)4.6 mphClear
10:55 PM46.4 °F28.4 °F50 %30.06 in10.0 miWest (280°)4.6 mphClear
11:15 PM44.6 °F28.4 °F53 %30.06 in10.0 miWest (260°)6.9 mphClear
11:35 PM44.6 °F30.2 °F57 %30.06 in10.0 miWest (260°)9.2 mphClear
11:55 PM42.8 °F28.4 °F57 %30.06 in10.0 miWest (260°)5.8 mphClear
Hourly data recorded from KSPF, located miles away from Sundance, Wyoming







STORIES FROM OUR PARTNERS